timestamp,surface_pressure_avg,surface_temp_avg,battery_voltage,lat,long
2021-01-01 00:09:01+00:00,342.6246,3.9,12.57,47.84626,-54.09684
2021-01-01 00:19:01+00:00,340.543,3.9,12.49,47.84626,-54.09684
2021-01-01 00:29:01+00:00,341.0446,3.9,12.49,47.84626,-54.09684
2021-01-01 00:39:01+00:00,341.7812,3.9,12.49,47.84626,-54.09684
2021-01-01 00:49:01+00:00,335.7596,3.9,12.49,47.84626,-54.09684
2021-01-01 00:59:01+00:00,330.3029,3.9,12.49,47.84626,-54.09684
2021-01-01 01:09:01+00:00,330.1296,3.9,12.49,47.84626,-54.09684
2021-01-01 01:19:01+00:00,334.5563,3.9,12.49,47.84626,-54.09684
2021-01-01 01:29:01+00:00,329.5114,3.9,12.49,47.84626,-54.09684
2021-01-01 01:39:01+00:00,323.2563,3.9,12.49,47.84626,-54.09684
2021-01-01 01:49:01+00:00,315.7797,3.9,12.49,47.84626,-54.09684
2021-01-01 01:59:01+00:00,312.7581,3.9,12.49,47.84626,-54.09684
2021-01-01 02:09:01+00:00,310.283,3.9,12.49,47.84626,-54.09684
2021-01-01 02:19:01+00:00,306.5846,3.9,12.49,47.84626,-54.09684
2021-01-01 02:29:01+00:00,300.108,3.9,12.49,47.84626,-54.09684
2021-01-01 02:39:01+00:00,293.8497,3.9,12.49,47.84626,-54.09684
2021-01-01 02:49:01+00:00,287.1747,3.9,12.49,47.84626,-54.09684
2021-01-01 02:59:01+00:00,280.9898,3.9,12.49,47.84626,-54.09684
2021-01-01 03:09:01+00:00,277.1464,3.9,12.49,47.84626,-54.09684
2021-01-01 03:19:01+00:00,268.0114,3.9,12.49,47.84626,-54.09684
2021-01-01 03:29:01+00:00,259.0514,3.89,12.49,47.84626,-54.09684
2021-01-01 03:39:01+00:00,257.5447,3.9,12.49,47.84626,-54.09684
2021-01-01 03:49:01+00:00,253.3464,3.9,12.49,47.84626,-54.09684
2021-01-01 03:59:01+00:00,237.9864,3.87,12.49,47.84626,-54.09684
2021-01-01 04:09:01+00:00,225.4648,3.86,12.49,47.84626,-54.09684
2021-01-01 04:19:01+00:00,222.3031,3.9,12.49,47.84626,-54.09684
2021-01-01 04:29:01+00:00,216.2014,3.9,12.49,47.84626,-54.09684
2021-01-01 04:39:01+00:00,208.7581,3.89,12.49,47.84626,-54.09684
2021-01-01 04:49:01+00:00,201.8231,3.89,12.49,47.84626,-54.09684
2021-01-01 04:59:01+00:00,192.5931,3.88,12.49,47.84626,-54.09684
2021-01-01 05:09:01+00:00,181.9748,3.85,12.49,47.84626,-54.09684
2021-01-01 05:19:01+00:00,172.8831,3.86,12.49,47.84626,-54.09684
2021-01-01 05:29:01+00:00,169.6099,3.85,12.49,47.84626,-54.09684
2021-01-01 05:39:01+00:00,166.5982,3.81,12.49,47.84626,-54.09684
2021-01-01 05:49:01+00:00,160.3448,3.8,12.49,47.84626,-54.09684
2021-01-01 05:59:01+00:00,153.5349,3.8,12.49,47.84626,-54.09684
2021-01-01 06:09:01+00:00,150.0932,3.79,12.49,47.84626,-54.09684
2021-01-01 06:19:01+00:00,151.2465,3.7,12.49,47.84626,-54.09684
2021-01-01 06:29:01+00:00,153.9882,3.7,12.49,47.84626,-54.09684
2021-01-01 06:39:01+00:00,153.3732,3.7,12.49,47.84626,-54.09684
2021-01-01 06:49:01+00:00,156.8832,3.7,12.49,47.84626,-54.09684
2021-01-01 06:59:01+00:00,164.2815,3.7,12.49,47.84626,-54.09684
2021-01-01 07:09:01+00:00,167.4348,3.7,12.49,47.84626,-54.09684
2021-01-01 07:19:01+00:00,168.0715,3.7,12.49,47.84626,-54.09684
2021-01-01 07:29:01+00:00,171.7048,3.69,12.49,47.84626,-54.09684
2021-01-01 07:39:01+00:00,179.0065,3.7,12.49,47.84626,-54.09684
2021-01-01 07:49:01+00:00,181.5365,3.72,12.49,47.84626,-54.09684
2021-01-01 07:59:01+00:00,186.9281,3.8,12.49,47.84626,-54.09684
2021-01-01 08:09:01+00:00,193.7632,3.8,12.49,47.84626,-54.09684
2021-01-01 08:19:01+00:00,190.4131,3.8,12.49,47.84626,-54.09684
2021-01-01 08:29:01+00:00,189.6815,3.8,12.49,47.84626,-54.09684
2021-01-01 08:39:01+00:00,197.0498,3.8,12.49,47.84626,-54.09684
2021-01-01 08:49:01+00:00,203.9164,3.8,12.49,47.84626,-54.09684
2021-01-01 08:59:01+00:00,208.3214,3.8,12.49,47.84626,-54.09684
2021-01-01 09:09:01+00:00,210.0431,3.8,12.49,47.84626,-54.09684
2021-01-01 09:19:01+00:00,217.4097,3.8,12.41,47.84626,-54.09684
2021-01-01 09:29:01+00:00,220.9598,3.8,12.41,47.84626,-54.09684
2021-01-01 09:39:01+00:00,223.8281,3.8,12.41,47.84626,-54.09684
2021-01-01 09:49:01+00:00,232.3081,3.7,12.41,47.84626,-54.09684
2021-01-01 09:59:01+00:00,238.2164,3.7,12.41,47.84626,-54.09684
2021-01-01 10:09:01+00:00,239.4831,3.7,12.41,47.84626,-54.09684
2021-01-01 10:19:01+00:00,246.1464,3.7,12.41,47.84626,-54.09684
2021-01-01 10:29:01+00:00,258.0164,3.7,12.41,47.84626,-54.09684
2021-01-01 10:39:01+00:00,266.7764,3.7,12.41,47.84626,-54.09684
2021-01-01 10:49:01+00:00,272.0597,3.7,12.41,47.84626,-54.09684
2021-01-01 10:59:01+00:00,281.7264,3.74,12.41,47.84626,-54.09684
2021-01-01 11:09:01+00:00,288.343,3.79,12.41,47.84626,-54.09684
2021-01-01 11:19:01+00:00,295.2863,3.8,12.41,47.84626,-54.09684
2021-01-01 11:29:01+00:00,305.413,3.8,12.41,47.84626,-54.09684
2021-01-01 11:39:01+00:00,316.9946,3.83,12.41,47.84626,-54.09684
2021-01-01 11:49:01+00:00,315.813,3.9,12.41,47.84626,-54.09684
2021-01-01 11:59:01+00:00,320.943,4.0,12.41,47.84626,-54.09684
2021-01-01 12:09:01+00:00,333.598,4.0,12.41,47.84626,-54.09684
2021-01-01 12:19:01+00:00,341.2580000000001,4.0,12.49,47.84626,-54.09684
2021-01-01 12:29:01+00:00,335.0613,4.01,12.49,47.84626,-54.09684
2021-01-01 12:39:01+00:00,339.2480000000001,4.05,12.49,47.84626,-54.09684
2021-01-01 12:49:01+00:00,347.32300000000015,4.05,12.49,47.84626,-54.09684
2021-01-01 12:59:01+00:00,347.1829,4.09,12.49,47.84626,-54.09684
2021-01-01 13:09:01+00:00,344.8346,4.1,12.49,47.84626,-54.09684
2021-01-01 13:19:01+00:00,352.3996,4.1,14.0,47.84626,-54.09684
2021-01-01 13:29:01+00:00,353.9196,4.1,14.0,47.84626,-54.09684
2021-01-01 13:39:01+00:00,348.9713,4.1,14.0,47.84626,-54.09684
2021-01-01 13:49:01+00:00,351.6647,4.1,14.0,47.84626,-54.09684
2021-01-01 13:59:01+00:00,353.5763,4.12,14.0,47.84626,-54.09684
2021-01-01 14:09:01+00:00,351.0363,4.2,14.0,47.84626,-54.09684
2021-01-01 14:19:01+00:00,349.2346,4.2,14.56,47.84626,-54.09684
2021-01-01 14:29:01+00:00,345.6996,4.2,14.56,47.84626,-54.09684
2021-01-01 14:39:01+00:00,337.99300000000005,4.2,14.56,47.84626,-54.09684
2021-01-01 14:49:01+00:00,334.9647,4.2,14.56,47.84626,-54.09684
2021-01-01 14:59:01+00:00,334.783,4.2,14.56,47.84626,-54.09684
2021-01-01 15:09:01+00:00,327.2164,4.2,14.56,47.84626,-54.09684
2021-01-01 15:19:01+00:00,316.6963,4.2,14.48,47.84626,-54.09684
2021-01-01 15:29:01+00:00,310.2913,4.2,14.48,47.84626,-54.09684
2021-01-01 15:39:01+00:00,303.0148,4.2,14.48,47.84626,-54.09684
2021-01-01 15:49:01+00:00,297.8898,4.2,14.48,47.84626,-54.09684
2021-01-01 15:59:01+00:00,289.2198,4.2,14.48,47.84626,-54.09684
2021-01-01 16:09:01+00:00,278.688,4.2,14.48,47.84626,-54.09684
2021-01-01 16:19:01+00:00,268.7981,4.2,14.72,47.84626,-54.09684
2021-01-01 16:29:01+00:00,263.6481,4.2,14.72,47.84626,-54.09684
2021-01-01 16:39:01+00:00,252.4414,4.17,14.72,47.84626,-54.09684
2021-01-01 16:49:01+00:00,245.3898,4.15,14.72,47.84626,-54.09684
2021-01-01 16:59:01+00:00,243.3914,4.1,14.72,47.84626,-54.09684
2021-01-01 17:09:01+00:00,234.8031,4.1,14.72,47.84626,-54.09684
2021-01-01 17:19:01+00:00,222.2431,4.1,14.4,47.84626,-54.09684
2021-01-01 17:29:01+00:00,218.6781,4.1,14.4,47.84626,-54.09684
2021-01-01 17:39:01+00:00,217.5098,4.1,14.4,47.84626,-54.09684
2021-01-01 17:49:01+00:00,210.2248,4.1,14.4,47.84626,-54.09684
2021-01-01 17:59:01+00:00,203.2748,4.1,14.4,47.84626,-54.09684
2021-01-01 18:09:01+00:00,201.2747,4.1,14.4,47.84626,-54.09684
2021-01-01 18:19:01+00:00,196.8898,4.1,14.32,47.84626,-54.09684
2021-01-01 18:29:01+00:00,191.6264,4.1,14.32,47.84626,-54.09684
2021-01-01 18:39:01+00:00,186.7731,4.1,14.32,47.84626,-54.09684
2021-01-01 18:49:01+00:00,183.3048,4.1,14.32,47.84626,-54.09684
2021-01-01 18:59:01+00:00,184.9148,4.1,14.32,47.84626,-54.09684
2021-01-01 19:09:01+00:00,186.8665,4.1,14.32,47.84626,-54.09684
2021-01-01 19:19:01+00:00,189.1048,4.1,14.08,47.84626,-54.09684
2021-01-01 19:29:01+00:00,185.9615,4.1,14.08,47.84626,-54.09684
2021-01-01 19:39:01+00:00,183.9731,4.08,14.08,47.84626,-54.09684
2021-01-01 19:49:01+00:00,188.7165,4.07,14.08,47.84626,-54.09684
2021-01-01 19:59:01+00:00,189.2848,4.06,14.08,47.84626,-54.09684
2021-01-01 20:09:01+00:00,187.5965,4.02,14.08,47.84626,-54.09684
2021-01-01 20:19:01+00:00,192.5015,4.06,13.53,47.84626,-54.09684
2021-01-01 20:29:01+00:00,198.4965,4.08,13.53,47.84626,-54.09684
2021-01-01 20:39:01+00:00,198.3114,4.04,13.53,47.84626,-54.09684
2021-01-01 20:49:01+00:00,200.9315,4.0,13.53,47.84626,-54.09684
2021-01-01 20:59:01+00:00,208.1264,4.0,13.53,47.84626,-54.09684
2021-01-01 21:09:01+00:00,208.5398,4.0,13.53,47.84626,-54.09684
2021-01-01 21:19:01+00:00,210.7965,4.0,13.13,47.84626,-54.09684
2021-01-01 21:29:01+00:00,221.1531,4.0,13.13,47.84626,-54.09684
2021-01-01 21:39:01+00:00,229.0064,4.0,13.13,47.84626,-54.09684
2021-01-01 21:49:01+00:00,233.0948,4.0,13.13,47.84626,-54.09684
2021-01-01 21:59:01+00:00,240.1264,4.0,13.13,47.84626,-54.09684
2021-01-01 22:09:01+00:00,246.6531,3.98,13.13,47.84626,-54.09684
2021-01-01 22:19:01+00:00,250.2031,3.9,12.81,47.84626,-54.09684
2021-01-01 22:29:01+00:00,255.4881,3.9,12.81,47.84626,-54.09684
2021-01-01 22:39:01+00:00,267.9281,3.93,12.81,47.84626,-54.09684
2021-01-01 22:49:01+00:00,275.4731,3.87,12.81,47.84626,-54.09684
2021-01-01 22:59:01+00:00,278.3931,3.86,12.81,47.84626,-54.09684
2021-01-01 23:09:01+00:00,285.1197,3.84,12.81,47.84626,-54.09684
2021-01-01 23:19:01+00:00,296.5797,3.8,12.65,47.84626,-54.09684
2021-01-01 23:29:01+00:00,301.153,3.7,12.65,47.84626,-54.09684
2021-01-01 23:39:01+00:00,302.4696,3.7,12.65,47.84626,-54.09684
2021-01-01 23:49:01+00:00,307.9847,3.92,12.65,47.84626,-54.09684
2021-01-01 23:59:01+00:00,317.478,4.33,12.65,47.84626,-54.09684
